Orbital Elements at Epoch 2459200.5 (2020-Dec-17.0) TDB
Reference: JPL 18 (heliocentric ecliptic J2000)
Element | Value | Uncertainty (1-sigma) | Units |
e | .2269672080258015 | 3.6933e-08 | |
a | 2.638389360457887 | 1.2143e-08 | au |
q | 2.039561493629781 | 1.0258e-07 | au |
i | 2.165131184786045 | 3.7785e-06 | deg |
node | 202.3028647151963 | 9.6263e-05 | deg |
peri | 193.2348388802994 | 9.6658e-05 | deg |
M | 333.596959990032 | 9.7141e-06 | deg |
tp | 2459315.304309383904 (2021-Apr-10.80430938) | 4.2693e-05 | TDB |
period | 1565.333058716045 4.29 | 1.0806e-05 2.959e-08 | d yr |
n | .2299830045723865 | 1.5877e-09 | deg/d |
Q | 3.237217227285994 | 1.4899e-08 | au |
|
| | Orbit Determination Parameters
Additional Information
|